When you browse on this site, cookies collect data to enhance your experience and personalize the content and advertising you see.
Visit our Privacy Policy to learn more. By continuing to use the site, you agree to this use of cookies and data.
  • In Lithuania
  • List of Countries
  • For 7 days
  • Water Temperature
  • Satellite Maps
  • Weather Map
  • Weather Widgets
  • user-avatar
    Login

    Hourly Weather Kalgoorlie

    Today, 17 June, Monday

    Time Temperature Precipitation Wind Pressure Humidity
    00:00 +12°C° 0 mm 2 mps 736 mmHg 67%
    01:00 +12°C° 0 mm 2 mps 736 mmHg 68%
    02:00 +10°C° 0 mm 2 mps 736 mmHg 69%
    03:00 +10°C° 0 mm 3 mps 736 mmHg 71%
    04:00 +10°C° 0 mm 3 mps 736 mmHg 73%
    05:00 +9°C° 0 mm 3 mps 736 mmHg 75%
    06:00 +8°C° 0 mm 4 mps 737 mmHg 78%
    07:00 +8°C° 0 mm 4 mps 737 mmHg 81%
    08:00 +10°C° 0 mm 4 mps 737 mmHg 84%
    09:00 +10°C° 0 mm 5 mps 738 mmHg 79%
    10:00 +12°C° 0 mm 5 mps 738 mmHg 73%
    11:00 +13°C° 0 mm 6 mps 738 mmHg 67%
    12:00 +13°C° 0 mm 5 mps 738 mmHg 65%
    13:00 +13°C° 0 mm 5 mps 737 mmHg 62%
    14:00 +13°C° 0 mm 4 mps 737 mmHg 60%
    15:00 +13°C° 0 mm 3 mps 737 mmHg 60%
    16:00 +13°C° 0 mm 2 mps 737 mmHg 59%
    17:00 +12°C° 0 mm 1 mps 737 mmHg 59%
    18:00 +12°C° 0 mm 2 mps 738 mmHg 59%
    19:00 +10°C° 0 mm 2 mps 738 mmHg 60%
    20:00 +10°C° 0 mm 3 mps 738 mmHg 60%
    21:00 +9°C° 0 mm 3 mps 738 mmHg 62%
    22:00 +9°C° 0 mm 3 mps 738 mmHg 64%
    23:00 +7°C° 0 mm 4 mps 738 mmHg 65%

    Tomorrow, 18 June, Tuesday

    Time Temperature Precipitation Wind Pressure Humidity
    00:00 +7°C° 0 mm 4 mps 738 mmHg 67%
    01:00 +6°C° 0 mm 4 mps 738 mmHg 69%
    02:00 +7°C° 0 mm 3 mps 738 mmHg 72%
    03:00 +5°C° 0 mm 3 mps 738 mmHg 74%
    04:00 +5°C° 0 mm 3 mps 738 mmHg 77%
    05:00 +5°C° 0 mm 3 mps 738 mmHg 80%
    06:00 +5°C° 0 mm 3 mps 738 mmHg 80%
    07:00 +5°C° 0 mm 4 mps 738 mmHg 80%
    08:00 +6°C° 0 mm 4 mps 738 mmHg 80%
    09:00 +7°C° 0 mm 4 mps 738 mmHg 72%
    10:00 +10°C° 0 mm 4 mps 738 mmHg 64%
    11:00 +12°C° 0 mm 4 mps 738 mmHg 56%
    12:00 +12°C° 0 mm 3 mps 737 mmHg 52%
    13:00 +13°C° 0 mm 3 mps 737 mmHg 48%
    14:00 +15°C° 0 mm 2 mps 736 mmHg 45%
    15:00 +14°C° 0 mm 1 mps 736 mmHg 48%
    16:00 +13°C° 0 mm 1 mps 736 mmHg 51%
    17:00 +11°C° 0 mm 0 mps 736 mmHg 55%
    18:00 +12°C° 0 mm 1 mps 736 mmHg 55%
    19:00 +12°C° 0 mm 1 mps 736 mmHg 54%
    20:00 +10°C° 0 mm 2 mps 736 mmHg 54%
    21:00 +10°C° 0 mm 2 mps 736 mmHg 55%
    22:00 +9°C° 0 mm 2 mps 736 mmHg 55%
    23:00 +9°C° 0 mm 2 mps 736 mmHg 56%

    Day after tomorrow, 19 June, Wednesday

    Time Temperature Precipitation Wind Pressure Humidity
    00:00 +9°C° 0 mm 2 mps 736 mmHg 57%
    01:00 +8°C° 0 mm 3 mps 736 mmHg 58%
    02:00 +8°C° 0 mm 3 mps 736 mmHg 59%
    03:00 +7°C° 0 mm 3 mps 736 mmHg 60%
    04:00 +7°C° 0 mm 3 mps 736 mmHg 62%
    05:00 +7°C° 0 mm 2 mps 736 mmHg 63%
    06:00 +7°C° 0 mm 2 mps 736 mmHg 63%
    07:00 +7°C° 0 mm 2 mps 736 mmHg 62%
    08:00 +8°C° 0 mm 2 mps 736 mmHg 62%
    09:00 +9°C° 0 mm 3 mps 736 mmHg 56%
    10:00 +11°C° 0 mm 3 mps 736 mmHg 50%
    11:00 +13°C° 0 mm 4 mps 736 mmHg 44%
    12:00 +14°C° 0 mm 3 mps 736 mmHg 40%
    13:00 +14°C° 0 mm 3 mps 735 mmHg 36%
    14:00 +16°C° 0 mm 3 mps 734 mmHg 32%
    15:00 +14°C° 0 mm 3 mps 734 mmHg 34%
    16:00 +13°C° 0 mm 3 mps 734 mmHg 36%
    17:00 +13°C° 0 mm 2 mps 734 mmHg 37%
    18:00 +12°C° 0 mm 3 mps 734 mmHg 39%
    19:00 +11°C° 0 mm 3 mps 735 mmHg 41%
    20:00 +11°C° 0 mm 3 mps 735 mmHg 42%
    21:00 +10°C° 0 mm 4 mps 735 mmHg 43%
    22:00 +10°C° 0 mm 4 mps 735 mmHg 45%
    23:00 +8°C° 0 mm 4 mps 735 mmHg 46%

    20 June, Thursday

    Time Temperature Precipitation Wind Pressure Humidity
    00:00 +8°C° 0 mm 4 mps 735 mmHg 46%
    01:00 +7°C° 0 mm 4 mps 735 mmHg 47%
    02:00 +7°C° 0 mm 4 mps 735 mmHg 48%
    03:00 +7°C° 0 mm 4 mps 735 mmHg 49%
    04:00 +7°C° 0 mm 4 mps 735 mmHg 50%
    05:00 +6°C° 0 mm 4 mps 735 mmHg 51%
    06:00 +7°C° 0 mm 4 mps 735 mmHg 50%
    07:00 +7°C° 0 mm 5 mps 735 mmHg 49%
    08:00 +8°C° 0 mm 5 mps 735 mmHg 48%
    09:00 +9°C° 0 mm 5 mps 735 mmHg 45%
    10:00 +11°C° 0 mm 6 mps 735 mmHg 43%
    11:00 +13°C° 0 mm 6 mps 735 mmHg 40%
    12:00 +14°C° 0 mm 6 mps 734 mmHg 40%
    13:00 +15°C° 0 mm 6 mps 734 mmHg 39%
    14:00 +16°C° 0 mm 6 mps 733 mmHg 38%
    15:00 +15°C° 0 mm 6 mps 733 mmHg 40%
    16:00 +15°C° 0 mm 5 mps 733 mmHg 42%
    17:00 +15°C° 0 mm 5 mps 733 mmHg 44%
    18:00 +14°C° 0 mm 5 mps 733 mmHg 44%
    19:00 +14°C° 0 mm 6 mps 733 mmHg 43%
    20:00 +12°C° 0 mm 7 mps 733 mmHg 43%
    21:00 +12°C° 0 mm 7 mps 733 mmHg 43%
    22:00 +12°C° 0 mm 8 mps 733 mmHg 42%
    23:00 +12°C° 0 mm 8 mps 733 mmHg 42%

    21 June, Friday

    Time Temperature Precipitation Wind Pressure Humidity
    00:00 +12°C° 0 mm 8 mps 733 mmHg 42%
    01:00 +12°C° 0 mm 7 mps 733 mmHg 42%
    02:00 +11°C° 0 mm 7 mps 732 mmHg 42%
    03:00 +11°C° 0.1 mm 7 mps 732 mmHg 44%
    04:00 +11°C° 0.1 mm 7 mps 732 mmHg 45%
    05:00 +11°C° 0.1 mm 7 mps 733 mmHg 47%
    06:00 +11°C° 0.1 mm 7 mps 733 mmHg 47%
    07:00 +11°C° 0.1 mm 7 mps 733 mmHg 48%
    08:00 +12°C° 0.1 mm 7 mps 733 mmHg 48%
    09:00 +13°C° 0.2 mm 8 mps 733 mmHg 49%
    10:00 +15°C° 0.2 mm 8 mps 733 mmHg 50%
    11:00 +16°C° 0.2 mm 9 mps 733 mmHg 51%
    12:00 +17°C° 0.1 mm 8 mps 732 mmHg 52%
    13:00 +17°C° 0.1 mm 8 mps 732 mmHg 53%
    14:00 +18°C° 0.1 mm 7 mps 731 mmHg 54%
    15:00 +17°C° 0.3 mm 7 mps 731 mmHg 57%
    16:00 +17°C° 0.3 mm 6 mps 731 mmHg 61%
    17:00 +16°C° 0.3 mm 5 mps 731 mmHg 64%
    18:00 +15°C° 0.4 mm 5 mps 731 mmHg 64%
    19:00 +15°C° 0.4 mm 6 mps 732 mmHg 63%
    20:00 +15°C° 0.4 mm 6 mps 732 mmHg 63%
    21:00 +15°C° 0.2 mm 6 mps 732 mmHg 60%
    22:00 +14°C° 0.2 mm 5 mps 732 mmHg 57%
    23:00 +14°C° 0.2 mm 5 mps 732 mmHg 54%

    22 June, Saturday

    Time Temperature Precipitation Wind Pressure Humidity
    00:00 +14°C° 0.7 mm 4 mps 732 mmHg 58%
    01:00 +13°C° 0.7 mm 3 mps 731 mmHg 63%
    02:00 +13°C° 0.7 mm 3 mps 731 mmHg 67%
    03:00 +13°C° 0 mm 3 mps 731 mmHg 61%
    04:00 +13°C° 0 mm 4 mps 731 mmHg 55%
    05:00 +13°C° 0 mm 4 mps 731 mmHg 48%
    06:00 +13°C° 0 mm 5 mps 731 mmHg 47%
    07:00 +13°C° 0 mm 5 mps 731 mmHg 46%
    08:00 +13°C° 0 mm 6 mps 732 mmHg 45%
    09:00 +15°C° 0 mm 7 mps 731 mmHg 39%
    10:00 +16°C° 0 mm 8 mps 731 mmHg 33%
    11:00 +18°C° 0 mm 9 mps 731 mmHg 27%
    12:00 +19°C° 0 mm 9 mps 731 mmHg 26%
    13:00 +19°C° 0 mm 9 mps 730 mmHg 24%
    14:00 +21°C° 0 mm 9 mps 729 mmHg 23%
    15:00 +20°C° 0 mm 7 mps 729 mmHg 24%
    16:00 +19°C° 0 mm 6 mps 729 mmHg 26%
    17:00 +19°C° 0 mm 5 mps 729 mmHg 27%
    18:00 +17°C° 0 mm 6 mps 729 mmHg 27%
    19:00 +17°C° 0 mm 7 mps 729 mmHg 28%
    20:00 +17°C° 0 mm 8 mps 729 mmHg 28%
    21:00 +16°C° 0.2 mm 9 mps 729 mmHg 40%
    22:00 +13°C° 0.2 mm 10 mps 729 mmHg 53%
    23:00 +11°C° 0.2 mm 11 mps 729 mmHg 65%
    Show more